Regional Weather Roundup
Issued by NWS Charleston, SC

Current Version | Previous Version | Text Only | Print | Product List | Glossary Off
Versions: 1 2 3 4 5 6 7 8 9 10 11 12 13 14 15 16 17 18 19 20 21 22 23 24 25 26 27 28 29 30 31 32 33 34 35 36 37 38 39 40 41 42 43 44 45 46 47 48 49 50
000 ASUS42 KCHS 272210 RWRCHS REGIONAL WEATHER ROUNDUP NATIONAL WEATHER SERVICE CHARLESTON SC 500 PM EST TUE JAN 27 2015 NOTE: "FAIR" INDICATES FEW OR NO CLOUDS BELOW 12,000 FEET WITH NO SIGNIFICANT WEATHER AND/OR OBSTRUCTIONS TO VISIBILITY. NOT ALL STATIONS ARE QUALITY CONTROLLED BY THE NATIONAL WEATHER SERVICE. USE DATA WITH CAUTION...ESPECIALLY DEWPOINT OBSERVATIONS. SCZ027-030-031-034>040-042>050-272300- ...SOUTHEAST SOUTH CAROLINA... CITY SKY/WX TMP DP RH WIND PRES REMARKS N CHARLESTON PTCLDY 49 22 34 NW10 29.90R WATERFRONT PRK N/A 50 N/A N/A NW9G16 N/A MOUNT PLEASANT FAIR N/A N/A N/A NW12 29.88R PINOPOLIS NOT AVBL MONCKS CORNER FAIR 50 21 32 NW7 29.89R SUMMERVILLE FAIR 46 28 49 N3 29.91R BEAUFORT MCAS PTCLDY 50 31 48 NW13 29.92R BEAUFORT ARPT FAIR 50 34 53 NW13G18 29.91R HILTON HEAD IS PTCLDY 50 32 50 W9 29.92R WALTERBORO CLEAR 50 27 40 W9 29.91R ALLENDALE FAIR 48 30 49 VRB5 29.91R ...SOUTHERN MIDLANDS AND PEE DEE... CITY SKY/WX TMP DP RH WIND PRES REMARKS GEORGETOWN NOT AVBL KINGSTREE NOT AVBL ORANGEBURG CLEAR 49 25 39 NW13 29.90R BARNWELL FAIR 50 32 50 NW6 29.91R AIKEN FAIR 50 28 43 W8 29.93R MANNING FAIR 48 23 37 NW10 29.90R COLUMBIA PTCLDY 50 25 37 NW9 29.90R SUMTER PTCLDY 48 22 35 W7 29.87R FLORENCE CLEAR 48 15 26 NW12 29.87R MYRTLE BEACH CLEAR 46 18 31 NW12 29.87R N MYRTLE BEACH CLEAR 46 21 37 NW9G20 29.85R $$ GAZ063-065-086>088-099>101-113>116-118-119-134>141-150-272300- ...SOUTHEAST GEORGIA... CITY SKY/WX TMP DP RH WIND PRES REMARKS SAVANNAH ARPT PTCLDY 50 30 46 NW9 29.92R HUNTER AAF MOCLDY 54 32 42 NW12 29.90R FORT STEWART CLEAR 53 29 39 W14G23 29.91R STATESBORO CLEAR 51 32 48 NW13G21 29.92S SYLVANIA PTCLDY 50 34 52 NW9 29.92S CLAXTON FAIR 52 32 46 W14G25 29.93R ...CSRA...CENTRAL AND FAR SOUTHEAST GEORGIA... CITY SKY/WX TMP DP RH WIND PRES REMARKS THOMSON MOCLDY 54 32 43 NW9 29.96R AUGUSTA-BUSH PTCLDY 50 27 40 NW7 29.91R AUGUSTA-DANIEL MOCLDY 52 27 38 NW7 29.91R SWAINSBORO FAIR 54 18 24 NW13G20 29.94R VIDALIA SUNNY 52 32 46 NW7G16 29.94S EASTMAN FAIR 55 32 42 NW5G16 29.98R HAZLEHURST FAIR 56 31 39 NW12G21 29.94R ALMA PTSUNNY 56 32 40 NW12 29.93R WAYCROSS MOSUNNY 60 37 41 NW16G24 29.93R JESUP FAIR 57 34 41 NW8G22 29.93R BAXLEY FAIR 55 32 41 NW15G22 29.93R BRUNSWICK SUNNY 55 30 38 NW10G20 29.93R SAINT SIMONS PTSUNNY 56 32 40 NW13G21 29.92R $$ SCZ027-028-034-036>038-045-046-048>050-GAZ119-141-272300- ...LAKE AND SUPPLEMENTAL COASTAL OBSERVATIONS... STATION/POSITION TIME TEMP WIND PRES WAVE SWELL AIR SEA DIR/SP/G HT/PER HT/PER/DIR (UTC) (F) (DEG/KT/KT) (MB) (FT/S) (FT/S/D) UPR LAKE MARION NOT AVBL WINYAH BAY NOT AVBL LAKE MURRAY 2100 48 280/ 8/ 12 1011.2R ACE BASIN NERRS NOT AVBL FORT PULASKI 2100 50 53 330/ 11/ 15 1012.7R SAPELO ISLAND 2100 55 300/ 16 1012.0S $$ ANZ835-935-AMZ111-154-330-350-352-354-370-450-454-472-272300- ...C-MAN AND BUOY OBSERVATIONS... STATION/POSITION TIME TEMP WIND PRES WAVE SWELL AIR SEA DIR/SP/G HT/PER HT/PER/DIR (UTC) (F) (DEG/KT/KT) (MB) (FT/S) (FT/S/D) BUOY 41004 2150 50 68 290/ 19/ 27 1010.7R 4/ 4 2/ 7 BUOY 41008 2150 53 54 320/ 19/ 25 1012.3R 3/ 4 FOLLY BEACH CMAN 2100 49 290/ 9/ 13 1012.0R CAPERS NEARSHORE 2100 49 300/ 16/ 17 N/A FRIPP NEARSHORE 2100 50 320/ 14/ 16 N/A STATION/POSITION TIME TEMP WIND PRES WAVE SWELL AIR SEA DIR/SP/G HT/PER HT/PER/DIR (UTC) (F) (DEG/KT/KT) (MB) (FT/S) (FT/S/D) 5E ST. MARYS GA 2122 58 N/A 2/ 3 FRYING PAN BUOY 2150 45 65 310/ 17/ 21 1010.5R 5/ 8 3/170/ 8 BUOY 41025 2150 39 69 330/ 17/ 23 1007.8R 11/12 10/ 50/12 CAPE LOOKOUT NC 2100 38 320/ 15/ 17 1008.7R BUOY 41002 2150 58 71 290/ 25/ 33 1004.8R 13/ 9 BUOY 41010 2120 62 76 290/ 27/ 33 1011.5R ST AUGUSTINE FL 2200 63 310/ 10/ 15 1012.5R $$

USA.gov is the U.S. government's official web portal to all federal, state and local government web resources and services.